Brookings, OR

3:34 PM PST on November 17, 2017 (GMT -0800)
Brookings State

Weather History for KBOK - March, 2014

Change the Weather History Date:

Tuesday, March 18, 2014

  Actual Average Record
Temperature  
Mean Temperature 55 °F -  
Max Temperature 65 °F 58 °F 78 °F (1978)
Min Temperature 45 °F 43 °F 33 °F (1937)
Degree Days  
Heating Degree Days 10    
Growing Degree Days 5 (Base 50)    
Moisture  
Dew Point 31 °F    
Average Humidity 41    
Maximum Humidity 62    
Minimum Humidity 22    
Precipitation  
Precipitation 0.00 in - - ()
Sea Level Pressure  
Sea Level Pressure 30.15 in    
Wind  
Wind Speed 8 mph (North)    
Max Wind Speed 13 mph    
Max Gust Speed 23 mph    
Visibility 10 miles    
Events      
Averages and records for this station are not official NWS values.
T = Trace of Precipitation, MM = Missing Value Source: NWS Daily Summary

Daily Weather History Graph

Daily Weather History Graph

Search for Another Location

Airport or City:

Trip Planner

Search our weather history database for the weather conditions in past years. The results will help you decide how hot, cold, wet, or windy it might be!

Date:

Astronomy

Mar. 18, 2014 Rise Set
Actual Time 7:23 AM PDT 7:27 PM PDT
Civil Twilight 6:55 AM PDT 7:55 PM PDT
Nautical Twilight 6:23 AM PDT 8:27 PM PDT
Astronomical Twilight 5:50 AM PDT 9:00 PM PDT
Moon 9:53 PM PDT (3/18) 8:14 AM PDT (3/18)
Length of Visible Light 12h 59m
Length of Day
12h 03m
Waning Gibbous, 96% of the Moon is Illuminated
Mar 18
Waning Gibbous
Mar 23
Last Quarter
Mar 30
New
Apr 7
First Quarter
Apr 15
Full

Hourly Weather History & Observations

Time (PDT) Temp. Windchill Dew Point Humidity Pressure Visibility Wind Dir Wind Speed Gust Speed Precip Events Conditions
12:56 AM 46.9 °F - 30.0 °F 52% 30.29 in 10.0 mi North 6.9 mph - N/A   Clear
1:56 AM 46.9 °F - 29.1 °F 50% 30.29 in 10.0 mi NNE 9.2 mph - N/A   Clear
2:56 AM 45.9 °F 42.9 °F 30.0 °F 54% 30.27 in 10.0 mi Variable 5.8 mph - N/A   Clear
3:56 AM 45.9 °F 42.9 °F 30.0 °F 54% 30.26 in 10.0 mi Variable 5.8 mph - N/A   Clear
4:56 AM 46.9 °F - 29.1 °F 50% 30.24 in 10.0 mi NNE 8.1 mph - N/A   Clear
5:56 AM 45.9 °F 42.9 °F 28.0 °F 50% 30.22 in 10.0 mi Variable 5.8 mph - N/A   Clear
6:56 AM 45.9 °F 42.9 °F 28.0 °F 50% 30.21 in 10.0 mi North 5.8 mph - N/A   Clear
7:56 AM 47.8 °F - 28.0 °F 46% 30.19 in 10.0 mi North 10.4 mph - N/A   Clear
8:56 AM 50.9 °F - 29.1 °F 43% 30.19 in 10.0 mi Variable 5.8 mph - N/A   Clear
9:56 AM 52.9 °F - 28.0 °F 38% 30.19 in 9.0 mi North 8.1 mph - N/A   Clear
10:56 AM 56.8 °F - 28.0 °F 33% 30.19 in 9.0 mi Variable 5.8 mph - N/A   Clear
11:56 AM 57.9 °F - 27.1 °F 31% 30.17 in 9.0 mi NNE 10.4 mph - N/A   Clear
12:56 PM 61.9 °F - 28.0 °F 28% 30.14 in 9.0 mi North 9.2 mph - N/A   Clear
1:56 PM 63.9 °F - 26.1 °F 24% 30.12 in 10.0 mi Variable 6.9 mph - N/A   Clear
2:56 PM 64.9 °F - 32.9 °F 30% 30.09 in 9.0 mi WNW 8.1 mph - N/A   Clear
3:56 PM 65.8 °F - 26.1 °F 22% 30.08 in 10.0 mi Variable 3.5 mph - N/A   Clear
4:56 PM 65.8 °F - 29.1 °F 25% 30.06 in 9.0 mi Variable 3.5 mph - N/A   Clear
5:56 PM 61.0 °F - 43.9 °F 53% 30.04 in 7.0 mi NW 6.9 mph - N/A   Clear
6:56 PM 55.9 °F - 43.0 °F 62% 30.05 in 7.0 mi NW 11.5 mph - N/A   Clear
7:56 PM 54.9 °F - 38.8 °F 55% 30.05 in 9.0 mi North 9.2 mph - N/A   Clear
8:56 PM 59.0 °F - 29.1 °F 32% 30.05 in 10.0 mi NE 10.4 mph 19.6 mph N/A   Clear
9:56 PM 57.9 °F - 30.0 °F 35% 30.05 in 10.0 mi NE 12.7 mph 23.0 mph N/A   Clear
10:56 PM 56.8 °F - 32.0 °F 39% 30.05 in 10.0 mi NNE 9.2 mph 17.3 mph N/A   Clear
11:56 PM 56.8 °F - 32.9 °F 40% 30.04 in 10.0 mi NE 8.1 mph - N/A   Clear